Theta_e
293 291 290 290 290 290 289 288 287 283 283 285 285 287 288 289 289 290 290 290 293 294 294 295 295 295 296 297 297 298 299 299 300 301 301 301 303 303
290 289 289 289 288 289 288 288 288 286 283 284 285 285 286 287 288 290 289 290 291 292 293 293 293 294 295 295 296 297 298 298 299 300 301 301 302 303
289 288 288 289 289 287 287 286 285 285 282 284 286 286 285 287 288 289 288 288 289 290 292 292 292 293 294 294 295 296 296 297 298 299 299 300 301 302
289 288 287 289 287 287 286 285 285 285 283 282 285 285 285 286 287 286 286 287 288 289 291 291 292 292 293 293 294 294 295 295 296 296 297 298 298 299
288 288 287 288 286 285 284 284 284 285 284 282 282 284 285 285 285 286 286 286 286 288 289 290 290 291 291 292 293 293 293 293 293 294 294 295 296 297
288 287 286 285 285 284 284 284 285 283 284 283 283 284 284 285 285 283 283 285 284 286 287 288 289 289 290 291 291 290 290 291 292 292 293 293 293 294
286 286 285 286 287 288 287 286 285 284 284 284 283 283 283 283 283 284 282 283 284 286 285 285 286 286 286 288 288 288 288 289 291 292 293 293 293 294
283 283 284 286 286 286 286 287 288 285 284 283 283 282 282 283 283 282 282 281 279 286 284 283 285 284 285 286 287 288 289 290 291 291 292 292 293 293
283 284 284 284 284 283 285 286 286 287 287 286 283 283 282 283 283 281 282 282 280 284 283 281 284 282 285 285 287 288 288 289 290 291 291 291 292 292
283 283 282 283 283 285 285 285 285 285 285 285 284 284 284 285 285 284 283 282 282 283 283 278 283 282 284 284 286 287 288 289 289 290 290 291 291 291
283 283 284 283 285 287 285 284 283 282 284 285 286 286 286 286 285 283 281 279 277 279 282 279 280 281 282 282 284 286 287 287 288 289 289 289 289 290
283 283 284 284 286 287 284 282 279 280 281 282 282 282 282 282 283 282 281 277 277 276 282 278 279 279 277 282 283 283 283 285 286 286 287 288 288 286
282 282 282 285 285 284 284 281 281 284 281 280 280 280 280 281 281 281 281 279 276 276 281 280 279 278 277 277 280 282 282 282 282 283 284 285 285 285
281 282 282 283 282 282 282 283 284 282 279 278 278 278 279 279 280 280 280 280 280 278 280 280 276 277 276 276 276 280 282 283 282 282 282 283 285 286
282 282 282 281 281 279 281 282 280 278 278 277 277 278 278 279 279 279 279 280 279 278 279 279 278 278 277 275 275 277 278 280 282 281 281 282 282 283
280 279 279 279 279 279 278 278 278 278 278 277 277 277 278 278 278 279 277 278 276 278 282 281 279 278 276 277 277 276 279 277 281 282 282 282 283 283
279 277 276 276 276 276 277 277 277 277 277 276 276 276 276 277 277 278 277 277 275 276 277 280 282 281 280 278 276 278 279 279 281 281 281 280 282 283
276 274 274 275 275 275 275 275 276 276 276 275 275 275 274 275 275 278 280 277 276 277 277 279 280 279 281 282 282 278 280 280 282 283 282 280 281 285
274 274 273 274 274 274 275 275 274 275 274 274 274 274 274 275 277 277 277 277 278 278 279 280 281 280 277 276 283 287 282 283 283 283 283 283 281 283
273 273 273 274 274 274 274 274 274 274 274 274 274 275 276 275 276 277 278 278 279 280 280 282 281 281 280 279 280 282 285 283 283 283 283 285 286 288
273 273 274 274 274 274 274 274 273 273 274 276 274 274 275 276 277 278 279 280 281 281 279 280 282 286 285 284 280 281 284 286 286 284 284 283 283 284
273 273 274 274 274 274 273 273 273 273 274 274 274 275 276 277 277 278 279 279 280 280 280 282 284 284 283 282 280 280 282 285 286 287 287 286 283 281
273 273 274 274 274 273 273 273 273 273 275 276 275 276 277 277 279 279 280 280 282 282 282 282 283 284 283 282 281 281 280 281 283 284 285 289 289 289
Wind_Speed
7 6 6 2 3 5 4 2 3 2 2 3 2 3 4 5 5 7 8 10 15 18 20 22 23 22 23 23 23 24 24 25 24 24 24 23 26 26
7 9 7 5 5 5 5 3 3 2 2 3 3 2 4 4 7 8 9 13 14 18 21 22 22 22 22 23 24 24 24 24 25 25 26 24 26 25
8 10 9 7 6 4 4 2 2 1 4 2 2 2 4 7 8 7 7 8 9 17 21 22 22 21 22 23 24 24 24 24 24 25 25 25 25 25
10 10 9 6 5 4 2 3 4 4 3 6 4 3 5 6 9 9 8 8 11 16 21 21 21 21 22 22 22 23 23 23 24 24 26 27 27 27
10 9 8 5 4 1 1 4 2 4 4 4 5 2 3 4 7 8 8 11 9 18 20 20 19 19 20 21 22 23 24 26 26 27 27 28 28 29
9 8 7 6 4 2 4 3 3 4 4 5 6 5 5 5 5 8 9 9 10 11 15 15 18 19 22 23 24 25 25 25 26 26 27 26 27 27
6 4 3 3 7 8 2 3 5 5 4 6 6 5 6 7 10 9 10 10 10 11 9 9 9 10 12 17 19 23 23 24 25 25 26 26 26 27
5 3 3 6 2 1 4 6 6 5 4 4 5 8 9 9 9 9 10 10 9 7 9 12 12 12 12 11 19 24 26 26 26 26 27 27 26 26
5 4 5 3 1 3 4 6 7 9 8 8 10 10 11 11 10 9 11 10 11 12 13 13 12 13 11 11 21 26 27 27 26 25 24 24 24 24
6 4 3 1 3 4 5 4 3 4 5 6 9 10 10 9 9 9 12 13 12 12 11 11 11 12 11 11 23 26 26 25 24 24 24 25 25 26
4 2 2 2 5 7 4 2 5 6 7 11 12 13 15 17 13 8 8 9 9 11 10 10 8 11 12 12 11 18 22 23 25 27 28 28 27 27
2 3 6 6 8 9 6 3 5 8 7 6 7 10 10 10 12 6 6 8 8 8 2 4 9 10 7 7 7 10 12 21 25 27 27 28 27 13
3 3 3 8 10 10 9 4 7 9 5 7 7 7 7 7 6 6 7 7 8 9 12 7 7 10 8 11 9 10 11 13 13 15 22 24 23 19
3 2 3 9 9 9 7 8 9 8 5 5 6 7 7 8 8 8 11 10 9 14 16 11 7 9 10 12 14 10 10 11 11 12 11 15 22 22
3 5 9 9 8 6 7 8 7 4 4 5 6 7 7 8 10 10 9 11 11 13 12 13 11 12 10 12 13 15 13 9 11 12 10 10 11 10
3 4 7 6 6 6 5 5 3 4 5 6 6 8 7 6 9 8 9 9 9 10 7 10 12 12 11 12 12 15 12 9 9 10 10 11 10 10
3 3 3 4 5 4 4 4 4 4 5 5 6 8 8 8 9 8 8 8 9 10 12 10 9 12 12 15 14 12 13 13 11 12 11 12 11 11
2 2 3 3 4 5 5 6 5 6 5 6 7 7 8 9 9 9 8 9 10 10 11 11 11 10 9 10 22 14 13 13 12 12 11 12 13 10
2 3 3 4 5 5 5 5 6 7 7 6 7 8 8 8 11 9 9 9 10 11 11 11 10 10 12 13 10 15 11 12 12 12 10 10 13 13
2 3 4 5 5 6 6 6 7 7 7 7 7 8 8 8 9 9 10 11 10 11 11 10 9 9 10 13 15 15 14 10 10 12 12 11 12 23
3 4 4 5 6 6 6 6 7 7 8 7 8 8 8 8 9 10 10 19 19 11 12 12 11 23 11 10 10 12 11 12 14 12 13 12 13 10
4 5 5 5 6 7 7 6 7 8 7 7 8 8 8 8 10 11 11 12 12 11 12 11 12 10 10 10 13 16 12 12 11 20 22 22 11 10
5 5 6 7 7 7 7 7 7 8 8 8 8 8 8 10 10 11 12 12 11 12 13 13 11 10 10 10 15 12 18 16 12 12 12 15 21 26
Wind_Direction
123 107 94 92 80 87 72 104 114 188 178 140 153 198 216 233 287 305 296 297 300 304 304 302 300 296 293 289 287 287 285 282 284 285 283 276 275 278
121 119 111 106 78 70 85 77 73 118 229 170 198 180 209 251 283 291 293 294 292 296 299 298 297 294 290 287 284 286 286 284 279 280 281 282 277 275
116 113 101 94 89 82 86 56 69 83 239 219 237 241 268 279 293 293 294 293 293 292 297 301 300 293 292 292 290 288 286 286 286 283 282 281 280 279
100 97 99 104 108 112 81 209 159 193 243 259 247 239 259 293 293 295 294 293 296 296 298 299 299 298 294 293 291 288 284 282 283 284 282 279 277 277
105 105 103 98 98 92 134 246 202 245 205 239 278 266 275 283 290 285 290 298 297 293 293 296 294 294 293 293 292 291 290 290 287 282 280 278 277 275
99 100 112 124 130 201 214 221 248 253 249 254 268 285 276 284 275 297 305 302 301 297 292 291 288 289 289 290 292 288 286 283 281 279 278 276 274 273
91 101 116 143 184 205 200 214 237 250 280 275 276 277 287 298 308 313 302 303 303 285 286 293 294 290 285 289 284 285 285 281 280 278 275 273 273 274
125 131 135 131 141 137 261 278 274 267 257 279 295 296 305 304 302 303 302 307 312 285 299 297 296 291 288 285 283 286 284 284 285 283 281 278 277 275
124 120 130 110 240 275 299 304 303 312 317 309 303 300 299 303 303 291 297 301 294 291 298 292 291 283 284 280 282 281 285 287 285 284 283 279 276 276
102 129 144 225 297 310 274 284 307 313 310 297 287 290 285 280 282 283 297 300 291 284 288 283 294 289 292 283 280 283 283 282 283 284 283 282 280 280
131 67 22 353 319 317 321 316 318 309 299 296 300 304 306 306 307 305 295 301 296 293 296 278 281 296 294 284 275 269 274 277 282 288 288 287 285 281
68 36 3 353 336 334 351 353 317 306 303 310 312 311 316 309 310 295 286 283 294 298 29 282 299 315 302 276 283 288 281 279 282 283 283 283 283 281
24 5 1 339 345 335 332 342 309 315 345 323 317 314 316 311 305 297 286 274 275 265 278 292 286 290 272 292 285 284 282 281 280 280 282 282 281 277
26 348 335 345 346 348 349 320 330 350 324 317 312 310 312 310 308 302 291 279 264 259 276 277 270 274 277 281 288 287 283 282 282 278 280 279 279 275
352 5 354 352 352 348 338 349 352 328 315 310 308 300 295 291 293 293 287 279 267 263 260 259 253 267 263 269 276 286 291 291 286 276 271 266 271 274
37 0 356 356 358 353 350 345 329 315 312 311 303 300 298 300 302 302 301 307 302 292 267 251 247 250 262 262 268 276 281 278 287 279 276 273 270 262
36 4 357 355 348 345 339 333 325 322 321 319 310 309 308 308 302 301 289 293 282 295 302 297 274 258 250 262 274 269 277 276 270 278 279 276 270 263
31 351 339 336 331 330 328 327 320 322 324 318 305 299 301 304 300 298 296 293 289 291 290 294 301 295 276 250 235 267 271 272 276 273 266 269 277 267
359 341 315 322 323 315 310 311 307 311 307 300 294 294 293 288 300 297 298 290 293 292 291 292 292 296 300 302 296 255 276 283 289 286 276 265 271 277
333 327 318 318 314 309 309 307 306 309 309 299 294 292 288 285 292 294 295 295 293 294 297 301 295 294 293 300 305 303 261 267 277 284 287 281 271 273
321 310 304 305 305 300 296 296 294 295 294 299 296 286 283 285 287 289 294 301 302 299 298 300 297 297 291 288 284 288 296 266 260 274 288 289 295 294
302 300 304 300 299 296 296 296 298 297 293 287 283 281 282 282 286 293 293 295 294 292 290 288 299 300 296 295 295 298 296 298 282 270 262 258 275 287
299 299 301 298 294 291 290 291 287 285 279 278 278 284 288 290 291 290 290 290 290 306 302 301 300 301 295 295 295 298 295 298 300 303 291 260 260 263